When you browse on this site, cookies collect data to enhance your experience and personalize the content and advertising you see.
Visit our Privacy Policy to learn more. By continuing to use the site, you agree to this use of cookies and data.
  • In Österreich
  • Länderverzeichnis
  • Für 7 Tage
  • Wassertemperatur
  • Wetterkarte
  • News
  • Widgets
  • user-avatar
    Anmelden

    Stündliche Wetter Masari Sharif

    Heute, 22 Februar, Samstag

    Zeit Temperatur Niederschläge Wind Luftdruck Luftfeuchtigkeit
    00:00 +9°C° 0 mm 1 m/S 657 mmHg 46%
    01:00 +8°C° 0 mm 1 m/S 657 mmHg 49%
    02:00 +8°C° 0 mm 1 m/S 657 mmHg 50%
    03:00 +7°C° 0 mm 1 m/S 657 mmHg 51%
    04:00 +7°C° 0 mm 1 m/S 657 mmHg 52%
    05:00 +7°C° 0 mm 1 m/S 658 mmHg 55%
    06:00 +7°C° 0 mm 1 m/S 658 mmHg 57%
    07:00 +7°C° 0 mm 1 m/S 658 mmHg 59%
    08:00 +9°C° 0 mm 1 m/S 659 mmHg 54%
    09:00 +10°C° 0 mm 1 m/S 659 mmHg 49%
    10:00 +12°C° 0 mm 1 m/S 660 mmHg 44%
    11:00 +13°C° 0 mm 1 m/S 660 mmHg 43%
    12:00 +14°C° 0 mm 1 m/S 659 mmHg 43%
    13:00 +14°C° 0 mm 2 m/S 659 mmHg 42%
    14:00 +14°C° 0 mm 2 m/S 659 mmHg 43%
    15:00 +14°C° 0 mm 1 m/S 659 mmHg 45%
    16:00 +14°C° 0 mm 1 m/S 659 mmHg 46%
    17:00 +13°C° 0 mm 1 m/S 659 mmHg 51%
    18:00 +12°C° 0 mm 1 m/S 658 mmHg 55%
    19:00 +9°C° 0 mm 0 m/S 658 mmHg 59%
    20:00 +9°C° 0 mm 0 m/S 658 mmHg 58%
    21:00 +10°C° 0 mm 1 m/S 658 mmHg 57%
    22:00 +9°C° 0 mm 1 m/S 658 mmHg 56%
    23:00 +9°C° 0 mm 1 m/S 657 mmHg 54%

    Morgen, 23 Februar, Sonntag

    Zeit Temperatur Niederschläge Wind Luftdruck Luftfeuchtigkeit
    00:00 +9°C° 0 mm 1 m/S 657 mmHg 53%
    01:00 +9°C° 0 mm 1 m/S 657 mmHg 51%
    02:00 +8°C° 0 mm 1 m/S 656 mmHg 50%
    03:00 +7°C° 0 mm 2 m/S 656 mmHg 49%
    04:00 +7°C° 0 mm 2 m/S 656 mmHg 48%
    05:00 +7°C° 0 mm 2 m/S 656 mmHg 48%
    06:00 +7°C° 0 mm 2 m/S 656 mmHg 47%
    07:00 +7°C° 0 mm 2 m/S 656 mmHg 46%
    08:00 +10°C° 0 mm 2 m/S 656 mmHg 40%
    09:00 +13°C° 0 mm 2 m/S 657 mmHg 34%
    10:00 +15°C° 0 mm 2 m/S 657 mmHg 28%
    11:00 +16°C° 0 mm 1 m/S 657 mmHg 27%
    12:00 +18°C° 0 mm 1 m/S 657 mmHg 25%
    13:00 +18°C° 0 mm 1 m/S 657 mmHg 24%
    14:00 +18°C° 0 mm 1 m/S 656 mmHg 26%
    15:00 +18°C° 0 mm 1 m/S 656 mmHg 28%
    16:00 +18°C° 0 mm 1 m/S 656 mmHg 29%
    17:00 +16°C° 0 mm 1 m/S 656 mmHg 33%
    18:00 +14°C° 0 mm 1 m/S 656 mmHg 37%
    19:00 +13°C° 0 mm 1 m/S 656 mmHg 41%
    20:00 +12°C° 0 mm 2 m/S 656 mmHg 44%
    21:00 +12°C° 0 mm 2 m/S 656 mmHg 47%
    22:00 +10°C° 0 mm 2 m/S 656 mmHg 50%
    23:00 +10°C° 0 mm 2 m/S 656 mmHg 51%

    übermorgen, 24 Februar, Montag

    Zeit Temperatur Niederschläge Wind Luftdruck Luftfeuchtigkeit
    00:00 +10°C° 0 mm 2 m/S 655 mmHg 52%
    01:00 +9°C° 0 mm 2 m/S 655 mmHg 53%
    02:00 +9°C° 0.1 mm 2 m/S 655 mmHg 59%
    03:00 +8°C° 0.1 mm 2 m/S 655 mmHg 64%
    04:00 +8°C° 0.1 mm 2 m/S 655 mmHg 70%
    05:00 +9°C° 0.1 mm 1 m/S 656 mmHg 72%
    06:00 +9°C° 0.1 mm 1 m/S 656 mmHg 73%
    07:00 +9°C° 0.1 mm 1 m/S 656 mmHg 75%
    08:00 +10°C° 0.1 mm 1 m/S 657 mmHg 69%
    09:00 +11°C° 0.1 mm 1 m/S 657 mmHg 63%
    10:00 +12°C° 0.1 mm 1 m/S 657 mmHg 57%
    11:00 +13°C° 0.1 mm 1 m/S 657 mmHg 55%
    12:00 +14°C° 0.1 mm 2 m/S 657 mmHg 53%
    13:00 +14°C° 0.1 mm 3 m/S 656 mmHg 52%
    14:00 +13°C° 0 mm 3 m/S 656 mmHg 52%
    15:00 +13°C° 0 mm 3 m/S 656 mmHg 53%
    16:00 +13°C° 0 mm 3 m/S 656 mmHg 54%
    17:00 +13°C° 0 mm 2 m/S 656 mmHg 59%
    18:00 +12°C° 0 mm 2 m/S 656 mmHg 64%
    19:00 +11°C° 0 mm 1 m/S 656 mmHg 69%
    20:00 +11°C° 0 mm 1 m/S 656 mmHg 69%
    21:00 +10°C° 0 mm 1 m/S 656 mmHg 69%
    22:00 +10°C° 0 mm 1 m/S 655 mmHg 68%
    23:00 +10°C° 0 mm 1 m/S 655 mmHg 68%

    25 Februar, Dienstag

    Zeit Temperatur Niederschläge Wind Luftdruck Luftfeuchtigkeit
    00:00 +9°C° 0 mm 1 m/S 655 mmHg 68%
    01:00 +9°C° 0 mm 1 m/S 655 mmHg 68%
    02:00 +9°C° 0 mm 1 m/S 654 mmHg 65%
    03:00 +9°C° 0 mm 1 m/S 654 mmHg 62%
    04:00 +8°C° 0 mm 1 m/S 654 mmHg 60%
    05:00 +8°C° 0 mm 2 m/S 654 mmHg 57%
    06:00 +8°C° 0 mm 2 m/S 654 mmHg 54%
    07:00 +8°C° 0 mm 2 m/S 655 mmHg 52%
    08:00 +10°C° 0 mm 2 m/S 655 mmHg 45%
    09:00 +13°C° 0 mm 2 m/S 655 mmHg 38%
    10:00 +15°C° 0 mm 2 m/S 656 mmHg 31%
    11:00 +15°C° 0 mm 2 m/S 656 mmHg 30%
    12:00 +16°C° 0 mm 2 m/S 655 mmHg 28%
    13:00 +17°C° 0 mm 2 m/S 655 mmHg 26%
    14:00 +17°C° 0 mm 2 m/S 655 mmHg 27%
    15:00 +17°C° 0 mm 2 m/S 655 mmHg 28%
    16:00 +17°C° 0 mm 2 m/S 655 mmHg 30%
    17:00 +16°C° 0 mm 2 m/S 655 mmHg 33%
    18:00 +15°C° 0 mm 2 m/S 655 mmHg 37%
    19:00 +13°C° 0 mm 3 m/S 654 mmHg 40%
    20:00 +13°C° 0 mm 3 m/S 654 mmHg 41%
    21:00 +14°C° 0 mm 2 m/S 654 mmHg 41%
    22:00 +13°C° 0 mm 2 m/S 654 mmHg 41%
    23:00 +13°C° 0 mm 2 m/S 654 mmHg 42%

    26 Februar, Mittwoch

    Zeit Temperatur Niederschläge Wind Luftdruck Luftfeuchtigkeit
    00:00 +13°C° 0 mm 2 m/S 654 mmHg 43%
    01:00 +12°C° 0 mm 2 m/S 653 mmHg 44%
    02:00 +12°C° 0 mm 2 m/S 653 mmHg 45%
    03:00 +12°C° 0 mm 2 m/S 653 mmHg 45%
    04:00 +10°C° 0 mm 2 m/S 652 mmHg 45%
    05:00 +12°C° 0 mm 2 m/S 652 mmHg 45%
    06:00 +12°C° 0 mm 2 m/S 652 mmHg 46%
    07:00 +12°C° 0 mm 2 m/S 652 mmHg 47%
    08:00 +12°C° 0.3 mm 3 m/S 652 mmHg 50%
    09:00 +12°C° 0.3 mm 4 m/S 652 mmHg 53%
    10:00 +13°C° 0.3 mm 5 m/S 651 mmHg 56%
    11:00 +14°C° 0 mm 5 m/S 651 mmHg 53%
    12:00 +15°C° 0 mm 4 m/S 651 mmHg 49%
    13:00 +17°C° 0 mm 3 m/S 650 mmHg 45%
    14:00 +17°C° 0 mm 3 m/S 650 mmHg 46%
    15:00 +17°C° 0 mm 3 m/S 650 mmHg 46%
    16:00 +16°C° 0 mm 3 m/S 649 mmHg 47%
    17:00 +14°C° 0.1 mm 3 m/S 650 mmHg 51%
    18:00 +13°C° 0.1 mm 3 m/S 650 mmHg 55%
    19:00 +11°C° 0.1 mm 3 m/S 650 mmHg 59%
    20:00 +12°C° 0 mm 2 m/S 650 mmHg 62%
    21:00 +12°C° 0 mm 2 m/S 651 mmHg 64%
    22:00 +10°C° 0 mm 2 m/S 651 mmHg 67%
    23:00 +8°C° 1.2 mm 3 m/S 651 mmHg 75%

    27 Februar, Donnerstag

    Zeit Temperatur Niederschläge Wind Luftdruck Luftfeuchtigkeit
    00:00 +5°C° 1.2 mm 4 m/S 652 mmHg 83%
    01:00 +2°C° 1.2 mm 5 m/S 652 mmHg 92%
    02:00 +2°C° 0.5 mm 5 m/S 653 mmHg 92%
    03:00 +2°C° 0.5 mm 5 m/S 653 mmHg 92%
    04:00 +1°C° 0.5 mm 4 m/S 653 mmHg 92%
    05:00 +1°C° 0.4 mm 4 m/S 653 mmHg 92%
    06:00 0°C° 0.4 mm 4 m/S 654 mmHg 93%
    07:00 -1°C° 0.4 mm 4 m/S 654 mmHg 93%
    08:00 -1°C° 0.2 mm 4 m/S 654 mmHg 92%
    09:00 -1°C° 0.2 mm 4 m/S 654 mmHg 90%
    10:00 0°C° 0.2 mm 3 m/S 654 mmHg 89%
    11:00 0°C° 0.1 mm 3 m/S 654 mmHg 87%
    12:00 0°C° 0.1 mm 3 m/S 654 mmHg 86%
    13:00 +1°C° 0.1 mm 3 m/S 654 mmHg 84%
    14:00 +1°C° 0.5 mm 3 m/S 654 mmHg 83%
    15:00 +1°C° 0.5 mm 3 m/S 654 mmHg 82%
    16:00 +1°C° 0.5 mm 3 m/S 654 mmHg 81%
    17:00 +1°C° 0.5 mm 2 m/S 654 mmHg 83%
    18:00 +1°C° 0.5 mm 2 m/S 654 mmHg 85%
    19:00 +1°C° 0.5 mm 2 m/S 655 mmHg 87%
    20:00 +2°C° 0.1 mm 1 m/S 655 mmHg 88%
    21:00 +2°C° 0.1 mm 1 m/S 655 mmHg 89%
    22:00 +2°C° 0.1 mm 1 m/S 655 mmHg 90%
    23:00 +1°C° 0 mm 1 m/S 655 mmHg 90%
    Mehr zeigen